[[{"header":{"parameterUnit":"m.s-1","parameterCategory":2,"la1":30.2991,"la2":30.254,"lo1":-89.0895,"lo2":-89.0444,"dy":0.0017,"dx":0.0017,"nx":28,"ny":28,"refTime":"2024-08-05T21:00:00:Z","depth":"0","parameterNumber":2,"parameterNumberName":"U-component_of_CURRENTS"},"data":[0,0,0,0,0,0,0,0,0,0,0,0,0,0,0,0,0,0,0,0,0,0,0,0,0,0,0,0,0,0,0,0,0,0,0,0,0,0,0,0,0,0,0,0,0,0,0,0,0,0,0,0,0,0,0,0,0,0,0.3616,0.3616,0,0.3538,0.3536,0.3534,0.3516,0.3518,0.3519,0.3521,0.3422,0.3419,0.3415,0,0,0,0,0,0,0,0,0,0,0,0,0,0.3721,0.3719,0.3616,0.3616,0.3616,0.3538,0.3536,0.3534,0.3516,0.3518,0.352,0.3521,0.3424,0.3419,0.3414,0,0,0,0,0,0,0,0,0,0,0,0,0,0.3653,0.3718,0.3616,0.3605,0.3604,0.3538,0.3536,0.3533,0.3516,0.3518,0.352,0.3522,0.3425,0.342,0.3414,0.3333,0,0,0.3395,0.3393,0,0,0,0,0,0,0,0,0.3657,0.3648,0.3607,0.3606,0.3605,0.3548,0.3538,0.3469,0.3515,0.3539,0.3521,0.3523,0.3467,0.3458,0.3425,0.3328,0.3324,0.3395,0.3391,0.3389,0.3387,0,0,0,0,0,0,0,0.3662,0.3651,0.3575,0.3607,0.3606,0.3595,0.3587,0.3524,0.3484,0.3537,0.3538,0.3544,0.3466,0.343,0.3422,0.3323,0.3395,0.339,0.3386,0.3384,0.319,0.3189,0,0,0,0,0,0,0.369,0.3655,0.3578,0.3574,0.3648,0.3592,0.3583,0.3556,0.3485,0.3479,0.3543,0.3544,0.3439,0.3429,0.3419,0.334,0.3389,0.3383,0.338,0.3192,0.319,0.3188,0,0,0,0,0,0,0.3692,0.3682,0.3581,0.3623,0.3611,0.3589,0.3559,0.3553,0.3527,0.3491,0.3484,0.3525,0.3441,0.3427,0.3363,0.3336,0.338,0.3375,0.3194,0.3191,0.3189,0.3168,0,0,0,0,0,0,0.3694,0.3682,0.366,0.3624,0.361,0.3531,0.3557,0.3551,0.3532,0.3533,0.3473,0.3466,0.3441,0.3371,0.3357,0.3328,0.337,0.3196,0.3193,0.319,0.3171,0.3165,0.3161,0,0,0,0,0,0.3698,0.3655,0.3658,0.3649,0.3582,0.353,0.3519,0.3507,0.353,0.3494,0.3469,0.3468,0.3343,0.3364,0.3348,0.3317,0.3197,0.3193,0.319,0.3173,0.3166,0.3161,0,0,0,0,0,0,0.3633,0.365,0.3652,0.36,0.3569,0.3531,0.35,0.3504,0.3452,0.3458,0.3434,0.3422,0.3371,0.3335,0.336,0.3254,0.3274,0.3267,0.3267,0.3261,0.3256,0.3305,0.3365,0,0,0,0,0,0.3624,0.3619,0.3607,0.3552,0.3549,0.3526,0.3505,0.3499,0.3463,0.3443,0.3415,0.3377,0.3336,0.3295,0.3259,0.3173,0.3252,0.3147,0.3142,0.3138,0.3166,0.3298,0.3311,0.3177,0.3177,0.3177,0,0,0.3573,0.3586,0.3572,0.3544,0.352,0.3468,0.3514,0.3476,0.3429,0.3437,0.3364,0.3366,0.3317,0.3247,0.3217,0.3211,0.3206,0.3133,0.313,0.3162,0.3297,0.3311,0.3323,0.3174,0.3175,0.3175,0,0,0.346,0.3489,0.3442,0.3434,0.3425,0.3423,0.3418,0.3394,0.3385,0.3324,0.3336,0.333,0.3232,0.3212,0.3183,0.3121,0.3198,0.3097,0.3081,0.3208,0.3223,0.3236,0.3324,0.3346,0.3069,0.3069,0.3069,0,0.3396,0.3354,0.3407,0.3359,0.337,0.3402,0.3351,0.3315,0.3272,0.3306,0.3299,0.3281,0.3223,0.3189,0.3151,0.3114,0.3201,0.3108,0.321,0.3225,0.3239,0.3327,0.3351,0.3067,0.3067,0.3068,0.3068,0,0.3251,0.3229,0.3202,0.3181,0.318,0.3154,0.316,0.3165,0.3198,0.3208,0.3237,0.3198,0.3219,0.3166,0.3117,0.3169,0.3202,0.3216,0.3241,0.3253,0.3342,0.3368,0.3065,0.3066,0.3066,0.3066,0,0,0.3098,0.3108,0.3099,0.313,0.3125,0.3135,0.3086,0.3115,0.3181,0.3144,0.3237,0.3132,0.3218,0.3192,0.3169,0.3216,0.3339,0.324,0.3248,0.3355,0.3624,0.3508,0.3526,0.3399,0.3404,0.3408,0.3636,0,0.2979,0.293,0.2951,0.2922,0.2933,0.3009,0.3,0.3042,0.3106,0.3198,0.3218,0.3271,0.3188,0.324,0.3276,0.3356,0.3413,0.3276,0.3573,0.3581,0.3501,0.3554,0.3327,0.3501,0.3662,0.3666,0.3669,0,0.2837,0.2869,0.2836,0.2951,0.2965,0.2948,0.3114,0.3105,0.3219,0.3288,0.3368,0.3418,0.346,0.342,0.3572,0.3505,0.3562,0.3604,0.3616,0.3545,0.3515,0.3518,0.3544,0.3464,0.3711,0.3707,0.3704,0,0.2821,0.2806,0.2834,0.2852,0.2937,0.2986,0.3042,0.3155,0.3234,0.3376,0.3491,0.3571,0.3661,0.3747,0.3774,0.3724,0.3981,0.3938,0.3886,0.3878,0.376,0.3732,0.377,0.4086,0.4086,0.4085,0.4085,0,0.2753,0.2779,0.2848,0.2883,0.2995,0.303,0.3168,0.3249,0.3382,0.3516,0.3558,0.3687,0.3762,0.3884,0.3891,0.3968,0.4091,0.3917,0.3945,0.3734,0.3703,0.3687,0.3646,0.4094,0.4092,0.409,0.4089,0,0.2741,0.275,0.2837,0.2951,0.2993,0.3096,0.3244,0.3356,0.3458,0.3644,0.3694,0.384,0.3983,0.4028,0.4193,0.4127,0.4078,0.4194,0.3907,0.3894,0.3703,0.3668,0.3633,0.3538,0.4188,0.4187,0.4185,0,0.2741,0.2772,0.2925,0.3011,0.3067,0.32,0.33,0.3401,0.3511,0.373,0.383,0.3999,0.4074,0.4231,0.4175,0.4194,0.408,0.3999,0.3826,0.3685,0.3671,0.3524,0.3436,0.3665,0.3659,0.3655,0.3652,0,0.2812,0.2862,0.2966,0.3123,0.3237,0.3355,0.3483,0.3558,0.3691,0.38,0.3946,0.4002,0.4102,0.3994,0.3994,0.397,0.3771,0.3909,0.3871,0.3351,0.3094,0.3017,0.3509,0.3613,0.3617,0.362,0.3622,0.3623,0.292,0.3003,0.313,0.3272,0.3381,0.347,0.3498,0.3603,0.3707,0.3749,0.3917,0.3871,0.3809,0.3741,0.3709,0.3504,0.3532,0.3355,0.3358,0.3248,0.3032,0.3407,0.3462,0.3465,0.3467,0.347,0.3471,0,0.306,0.3126,0.3266,0.3386,0.3447,0.3498,0.3586,0.3529,0.3539,0.3607,0.3615,0.3481,0.3344,0.3276,0.3107,0.2968,0.2821,0.29,0.2662,0.2632,0.3077,0.2925,0.2733,0.2733,0.2733,0.2733,0.2733,0.2733,0.316,0.3279,0.3309,0.3404,0.3445,0.3398,0.3391,0.3305,0.3281,0.3114,0.2977,0.2928,0.2951,0.2852,0.2678,0.261,0.2451,0.2285,0.238,0.2703,0.2746,0.2786,0.2635,0.2385,0.2385,0.1769,0.1765,0.1761]},{"header":{"parameterUnit":"m.s-1","parameterCategory":2,"la1":30.2991,"la2":30.254,"lo1":-89.0895,"lo2":-89.0444,"dy":0.0017,"dx":0.0017,"nx":28,"ny":28,"refTime":"2024-08-05T21:00:00:Z","depth":"0","parameterNumber":3,"parameterNumberName":"V-component_of_CURRENTS"},"data":[0,0,0,0,0,0,0,0,0,0,0,0,0,0,0,0,0,0,0,0,0,0,0,0,0,0,0,0,0,0,0,0,0,0,0,0,0,0,0,0,0,0,0,0,0,0,0,0,0,0,0,0,0,0,0,0,0,0,-0.0167,-0.0167,0,-0.0107,-0.0106,-0.0105,-0.0071,-0.0071,-0.0071,-0.0071,-0.0075,-0.0075,-0.0075,0,0,0,0,0,0,0,0,0,0,0,0,0,-0.0221,-0.022,-0.0167,-0.0167,-0.0166,-0.0107,-0.0106,-0.0105,-0.0071,-0.0071,-0.0071,-0.0071,-0.0075,-0.0075,-0.0075,0,0,0,0,0,0,0,0,0,0,0,0,0,-0.0181,-0.022,-0.0168,-0.0144,-0.0141,-0.0107,-0.0106,-0.0105,-0.0071,-0.0071,-0.0071,-0.0071,-0.0075,-0.0075,-0.0075,-0.0074,0,0,-0.0075,-0.0075,0,0,0,0,0,0,0,0,-0.0183,-0.0179,-0.0148,-0.0145,-0.0142,-0.0098,-0.0126,-0.0098,-0.0071,-0.0095,-0.0071,-0.0071,-0.009,-0.0089,-0.0074,-0.0074,-0.0074,-0.0075,-0.0075,-0.0076,-0.0076,0,0,0,0,0,0,0,-0.0186,-0.0181,-0.0141,-0.0147,-0.0144,-0.0125,-0.0119,-0.012,-0.0093,-0.0093,-0.0091,-0.0088,-0.0089,-0.0074,-0.0074,-0.0074,-0.0075,-0.0076,-0.0076,-0.0076,-0.0068,-0.0068,0,0,0,0,0,0,-0.0199,-0.0184,-0.0143,-0.014,-0.0166,-0.0124,-0.0118,-0.0111,-0.0091,-0.0088,-0.0088,-0.0086,-0.0073,-0.0074,-0.0074,-0.0043,-0.0076,-0.0076,-0.0076,-0.0068,-0.0068,-0.0068,0,0,0,0,0,0,-0.02,-0.0196,-0.0146,-0.0162,-0.0155,-0.0124,-0.0115,-0.011,-0.0091,-0.0086,-0.0084,-0.0075,-0.0073,-0.0074,-0.0066,-0.0044,-0.0076,-0.0076,-0.0068,-0.0068,-0.0068,-0.0,0,0,0,0,0,0,-0.0202,-0.0196,-0.0192,-0.0163,-0.0154,-0.0111,-0.0115,-0.0108,-0.009,-0.0087,-0.0076,-0.0076,-0.0074,-0.0065,-0.0066,-0.0045,-0.0076,-0.0069,-0.0068,-0.0068,-0.0003,0.0003,0.0007,0,0,0,0,0,-0.0204,-0.0189,-0.0192,-0.0188,-0.0151,-0.011,-0.0103,-0.0081,-0.0089,-0.0067,-0.0068,-0.0076,-0.0063,-0.0065,-0.0065,-0.0044,-0.0069,-0.0068,-0.0068,-0.0005,0.0001,0.0007,0,0,0,0,0,0,-0.0187,-0.0184,-0.0187,-0.0166,-0.0139,-0.0105,-0.0083,-0.008,-0.0062,-0.0064,-0.0069,-0.0068,-0.0054,-0.0065,-0.0067,-0.0044,-0.0069,-0.0069,-0.0021,-0.0016,-0.0011,0.0015,-0.0076,0,0,0,0,0,-0.019,-0.0186,-0.0169,-0.0146,-0.0137,-0.0115,-0.0098,-0.0084,-0.0067,-0.0058,-0.0053,-0.0055,-0.0052,-0.0047,-0.0046,-0.0031,-0.0023,-0.0022,-0.0017,-0.0013,0.0006,0.002,0.0028,-0.0066,-0.0066,-0.0066,0,0,-0.0172,-0.0171,-0.0165,-0.0144,-0.0123,-0.0084,-0.0103,-0.007,-0.0035,-0.0064,-0.0021,-0.0038,-0.0047,-0.0024,-0.002,-0.0029,0.0022,-0.0012,-0.0008,0.0009,0.0021,0.0031,0.0039,-0.0065,-0.0066,-0.0066,0,0,-0.0118,-0.0138,-0.0109,-0.0093,-0.007,-0.0059,-0.0053,-0.0024,-0.001,0.0019,0.0003,0.0001,0.0012,0.0016,0.0016,0.0043,0.0044,0.0034,0.0088,0.0101,0.0109,0.0117,0.0162,0.0173,0.004,0.004,0.004,0,-0.0095,-0.0063,-0.0088,-0.005,-0.0031,-0.0047,0.0003,0.0018,0.0048,0.0056,0.0042,0.0055,0.0038,0.0067,0.0076,0.0058,0.0074,0.0071,0.011,0.0117,0.0124,0.0168,0.0179,0.0044,0.0043,0.0043,0.0043,0,-0.0011,0.0009,0.003,0.006,0.0078,0.0115,0.0122,0.0136,0.0131,0.0141,0.0161,0.0144,0.0152,0.0139,0.0119,0.0153,0.0154,0.0113,0.0102,0.0138,0.0181,0.0192,0.0048,0.0047,0.0046,0.0045,0,0,0.0054,0.0081,0.009,0.011,0.0131,0.0156,0.0195,0.0225,0.0249,0.0256,0.03,0.0284,0.0259,0.0256,0.0225,0.0233,0.0288,0.0199,0.0198,0.0258,0.0349,0.0305,0.0312,0.0254,0.0255,0.0257,0.0369,0,0.0131,0.0203,0.02,0.027,0.0302,0.0284,0.0321,0.0336,0.034,0.0373,0.0347,0.0372,0.0309,0.0314,0.0312,0.03,0.0315,0.0263,0.0293,0.0295,0.0262,0.0322,0.0297,0.0391,0.038,0.0381,0.0383,0,0.0216,0.0245,0.0321,0.0348,0.0362,0.0398,0.0425,0.046,0.0479,0.0484,0.0495,0.0478,0.0504,0.0431,0.0454,0.0427,0.0395,0.0377,0.038,0.0324,0.027,0.0346,0.041,0.0299,0.0399,0.0397,0.0396,0,0.0259,0.0325,0.0377,0.0391,0.0428,0.0451,0.0469,0.049,0.0519,0.0561,0.0598,0.0605,0.0642,0.0602,0.0565,0.0516,0.0594,0.0516,0.0454,0.0452,0.043,0.0422,0.04,0.0522,0.0522,0.0522,0.0521,0,0.0323,0.0364,0.0396,0.0422,0.0477,0.0489,0.0545,0.0562,0.0605,0.068,0.0657,0.0745,0.0684,0.0713,0.0637,0.0609,0.0655,0.0493,0.048,0.0453,0.0446,0.0343,0.0259,0.0526,0.0525,0.0524,0.0523,0,0.0354,0.038,0.0436,0.048,0.0495,0.053,0.0582,0.0625,0.0668,0.0776,0.0803,0.0875,0.0939,0.0871,0.0852,0.0726,0.061,0.0645,0.0635,0.0615,0.0398,0.0318,0.0293,0.0241,0.0594,0.0593,0.0593,0,0.0373,0.0406,0.0467,0.0498,0.0517,0.0567,0.0606,0.0647,0.0716,0.0882,0.096,0.1053,0.1164,0.1121,0.093,0.0811,0.0666,0.0652,0.052,0.041,0.0313,0.0259,0.0213,0.0541,0.054,0.054,0.0539,0,0.0402,0.0423,0.0467,0.0535,0.0582,0.0645,0.0721,0.0789,0.0894,0.1025,0.1252,0.1362,0.1321,0.122,0.0995,0.0871,0.0544,0.0631,0.0524,0.028,0.0218,0.0154,0.0465,0.0534,0.0534,0.0535,0.0535,0.0535,0.0417,0.0456,0.0519,0.0585,0.0649,0.076,0.0851,0.0973,0.1145,0.1386,0.147,0.167,0.1434,0.1147,0.0949,0.0526,0.0524,0.0366,0.0292,0.026,0.0156,0.0462,0.049,0.049,0.049,0.0491,0.0491,0,0.0449,0.0503,0.0566,0.0677,0.0778,0.0797,0.096,0.109,0.1356,0.1549,0.1759,0.1757,0.1447,0.1093,0.0515,0.0228,0.013,0.0087,0.0008,-0.0015,0.0276,0.0215,0.0176,0.0176,0.0176,0.0176,0.0177,0.0177,0.0473,0.0552,0.0598,0.078,0.0868,0.1038,0.1156,0.136,0.1532,0.1803,0.1917,0.1971,0.1719,0.074,0.0104,-0.0054,-0.0233,-0.028,-0.0344,-0.0164,-0.0144,-0.0124,-0.02,-0.0325,-0.0325,-0.0601,-0.0604,-0.0607]}],[{"header":{"parameterUnit":"m.s-1","parameterCategory":2,"la1":30.2991,"la2":30.254,"lo1":-89.0895,"lo2":-89.0444,"dy":0.0017,"dx":0.0017,"nx":28,"ny":28,"refTime":"2024-08-05T21:00:00:Z","depth":"2","parameterNumber":2,"parameterNumberName":"U-component_of_CURRENTS"},"data":[0,0,0,0,0,0,0,0,0,0,0,0,0,0,0,0,0,0,0,0,0,0,0,0,0,0,0,0,0,0,0,0,0,0,0,0,0,0,0,0,0,0,0,0,0,0,0,0,0,0,0,0,0,0,0,0,0,0,0.2276,0.2276,0,0.2305,0.2305,0.2306,0.2338,0.2339,0.2339,0.234,0.2319,0.2317,0.2316,0,0,0,0,0,0,0,0,0,0,0,0,0,0.2304,0.2303,0.2276,0.2276,0.2277,0.2305,0.2305,0.2306,0.2338,0.2339,0.234,0.234,0.2319,0.2318,0.2316,0,0,0,0,0,0,0,0,0,0,0,0,0,0.2306,0.2302,0.2276,0.2298,0.2301,0.2305,0.2305,0.2306,0.2338,0.2339,0.234,0.2341,0.2319,0.2318,0.2316,0.2284,0,0,0.231,0.231,0,0,0,0,0,0,0,0,0.2306,0.2305,0.2294,0.2297,0.23,0.2321,0.2308,0.2297,0.2337,0.2321,0.234,0.2341,0.2315,0.2314,0.2315,0.2283,0.2282,0.231,0.2309,0.2308,0.2308,0,0,0,0,0,0,0,0.2306,0.2304,0.2285,0.2295,0.2298,0.2327,0.2327,0.2306,0.2309,0.2323,0.2326,0.2332,0.2316,0.2316,0.2314,0.2282,0.231,0.2309,0.2308,0.2307,0.2285,0.2285,0,0,0,0,0,0,0.2302,0.2303,0.2284,0.2286,0.2308,0.2325,0.2326,0.2311,0.2311,0.2313,0.2331,0.2334,0.2319,0.2316,0.2314,0.232,0.2308,0.2307,0.2306,0.2284,0.2285,0.2285,0,0,0,0,0,0,0.2302,0.2299,0.2283,0.2299,0.2299,0.2323,0.2307,0.2311,0.2327,0.2319,0.2319,0.2345,0.232,0.2316,0.2319,0.2317,0.2306,0.2304,0.2284,0.2284,0.2285,0.2303,0,0,0,0,0,0,0.2302,0.2298,0.2302,0.2298,0.2298,0.2289,0.2306,0.2311,0.233,0.2333,0.233,0.2328,0.232,0.2322,0.2317,0.2315,0.2303,0.2283,0.2284,0.2285,0.2302,0.2305,0.2307,0,0,0,0,0,0.2303,0.2281,0.2301,0.23,0.2296,0.2289,0.2291,0.2312,0.2329,0.2331,0.2343,0.2329,0.2324,0.2321,0.2315,0.2312,0.2283,0.2284,0.2285,0.2301,0.2304,0.2307,0,0,0,0,0,0,0.2279,0.2283,0.2304,0.2282,0.2295,0.2296,0.2303,0.2317,0.2327,0.2344,0.2333,0.2331,0.2338,0.2322,0.2318,0.2311,0.2301,0.2301,0.2316,0.2318,0.2321,0.2337,0.2301,0,0,0,0,0,0.228,0.2267,0.2285,0.2265,0.228,0.2298,0.2305,0.2323,0.2328,0.2335,0.2331,0.2333,0.2334,0.2326,0.2325,0.2309,0.2347,0.2306,0.2308,0.231,0.2321,0.241,0.2422,0.2289,0.2289,0.2289,0,0,0.2263,0.2263,0.2258,0.2262,0.2277,0.2287,0.2304,0.2318,0.2325,0.2329,0.2335,0.2345,0.2336,0.2335,0.2333,0.232,0.2363,0.2311,0.2313,0.2323,0.2413,0.2426,0.2438,0.229,0.229,0.229,0,0,0.2222,0.2231,0.2225,0.2237,0.227,0.2284,0.2292,0.2312,0.2328,0.2339,0.2351,0.2368,0.2349,0.2352,0.2348,0.2359,0.2383,0.2351,0.236,0.2447,0.2459,0.2471,0.2521,0.2537,0.2339,0.2339,0.2339,0,0.2215,0.2204,0.2221,0.2224,0.2241,0.2283,0.2295,0.2305,0.2321,0.2341,0.2346,0.2379,0.2361,0.2378,0.2376,0.2365,0.2414,0.2348,0.2453,0.2465,0.2476,0.2525,0.2542,0.234,0.234,0.234,0.234,0,0.218,0.2185,0.2179,0.2203,0.2218,0.2231,0.2264,0.2286,0.2319,0.2341,0.2386,0.2393,0.2422,0.2403,0.2384,0.2443,0.2452,0.2458,0.2449,0.2491,0.2539,0.2557,0.2342,0.2342,0.2341,0.2341,0,0,0.2132,0.2158,0.2158,0.2182,0.222,0.2227,0.225,0.2292,0.2332,0.2359,0.2422,0.2409,0.2454,0.2454,0.2452,0.2494,0.2591,0.2502,0.2506,0.2558,0.2777,0.2669,0.2678,0.2632,0.2636,0.2638,0.2773,0,0.2117,0.212,0.2138,0.2154,0.2174,0.2222,0.224,0.2283,0.2335,0.2402,0.2443,0.2501,0.2462,0.2504,0.2543,0.259,0.2642,0.2554,0.2723,0.2727,0.2633,0.2697,0.2462,0.2554,0.279,0.2793,0.2795,0,0.2092,0.2102,0.2114,0.2163,0.2179,0.22,0.2277,0.2297,0.239,0.2446,0.2527,0.2582,0.2645,0.2631,0.2743,0.2697,0.2743,0.277,0.2777,0.2685,0.2654,0.2553,0.2577,0.2825,0.2823,0.282,0.2818,0,0.2063,0.209,0.2102,0.2112,0.2165,0.22,0.2243,0.232,0.2369,0.2501,0.258,0.2675,0.2758,0.283,0.2876,0.2837,0.3016,0.2976,0.2924,0.2916,0.2752,0.2723,0.3092,0.3091,0.3091,0.3091,0.309,0,0.204,0.205,0.2097,0.2104,0.2149,0.2192,0.2261,0.2325,0.2444,0.2517,0.2615,0.2717,0.2823,0.2926,0.2946,0.2989,0.3088,0.2944,0.2956,0.2746,0.2716,0.2976,0.2961,0.3096,0.3095,0.3094,0.3093,0,0.2005,0.2021,0.2043,0.2107,0.2135,0.2168,0.2279,0.2343,0.2444,0.2562,0.262,0.2793,0.2911,0.299,0.3124,0.3076,0.3128,0.3128,0.285,0.2824,0.2947,0.2931,0.3069,0.3066,0.3064,0.3063,0.3061,0,0.1989,0.1999,0.2046,0.2078,0.2117,0.2178,0.2241,0.2343,0.241,0.259,0.2655,0.2831,0.2918,0.3059,0.3045,0.3077,0.3142,0.2857,0.2719,0.2954,0.2952,0.2939,0.2926,0.2511,0.2505,0.2501,0.2497,0,0.1976,0.1989,0.201,0.2058,0.212,0.2185,0.2277,0.2309,0.2422,0.2524,0.2663,0.2754,0.2884,0.2815,0.2852,0.2828,0.2817,0.2757,0.3138,0.2533,0.2434,0.2429,0.2435,0.2455,0.2459,0.2462,0.2464,0.2466,0.198,0.1983,0.1995,0.205,0.2113,0.2162,0.2178,0.2256,0.2316,0.2394,0.2545,0.2587,0.2628,0.2556,0.2489,0.2428,0.2607,0.2465,0.2478,0.2497,0.2388,0.2289,0.2262,0.2264,0.2267,0.2269,0.2271,0,0.1989,0.1969,0.2002,0.2036,0.208,0.2136,0.2182,0.2139,0.2144,0.2247,0.2318,0.2152,0.2109,0.2155,0.1995,0.1966,0.1935,0.1876,0.1818,0.1863,0.1902,0.176,0.1469,0.1466,0.1463,0.1461,0,0,0.1973,0.1965,0.1962,0.1966,0.2024,0.1997,0.1996,0.1942,0.193,0.1889,0.1906,0.2049,0.211,0.1777,0.1716,0.1568,0.1701,0.1501,0.2152,0.2132,0.2168,0.2255,0.2089,0,0,0,0,0]},{"header":{"parameterUnit":"m.s-1","parameterCategory":2,"la1":30.2991,"la2":30.254,"lo1":-89.0895,"lo2":-89.0444,"dy":0.0017,"dx":0.0017,"nx":28,"ny":28,"refTime":"2024-08-05T21:00:00:Z","depth":"2","parameterNumber":3,"parameterNumberName":"V-component_of_CURRENTS"},"data":[0,0,0,0,0,0,0,0,0,0,0,0,0,0,0,0,0,0,0,0,0,0,0,0,0,0,0,0,0,0,0,0,0,0,0,0,0,0,0,0,0,0,0,0,0,0,0,0,0,0,0,0,0,0,0,0,0,0,0.0203,0.0203,0,0.0199,0.0199,0.0199,0.0198,0.0198,0.0198,0.0198,0.0161,0.016,0.0159,0,0,0,0,0,0,0,0,0,0,0,0,0,0.0189,0.0189,0.0203,0.0203,0.0203,0.0199,0.0199,0.0199,0.0198,0.0198,0.0198,0.0199,0.0162,0.016,0.0159,0,0,0,0,0,0,0,0,0,0,0,0,0,0.0191,0.0189,0.0203,0.0203,0.0203,0.0199,0.0199,0.0199,0.0198,0.0198,0.0198,0.0199,0.0162,0.0161,0.0159,0.0147,0,0,0.0154,0.0153,0,0,0,0,0,0,0,0,0.0191,0.0191,0.0203,0.0203,0.0203,0.0199,0.018,0.018,0.0198,0.02,0.0198,0.0199,0.0171,0.0169,0.0168,0.0145,0.0144,0.0154,0.0153,0.0152,0.0152,0,0,0,0,0,0,0,0.0191,0.0191,0.0201,0.0203,0.0203,0.0195,0.0195,0.018,0.0184,0.02,0.02,0.0199,0.0171,0.0169,0.0167,0.0143,0.0154,0.0153,0.0152,0.0151,0.0104,0.0104,0,0,0,0,0,0,0.0193,0.0191,0.0202,0.0201,0.0197,0.0195,0.0196,0.02,0.0185,0.0183,0.0199,0.0199,0.0172,0.0169,0.0165,0.0158,0.0152,0.0151,0.015,0.0105,0.0104,0.0104,0,0,0,0,0,0,0.0192,0.0194,0.0202,0.0196,0.0196,0.0195,0.02,0.02,0.02,0.0185,0.0183,0.02,0.0172,0.0168,0.0154,0.0157,0.015,0.0149,0.0105,0.0105,0.0104,0.0139,0,0,0,0,0,0,0.0192,0.0194,0.0193,0.0196,0.0197,0.0205,0.02,0.02,0.02,0.02,0.0184,0.0181,0.0172,0.0157,0.0153,0.0154,0.0147,0.0105,0.0105,0.0104,0.0138,0.014,0.0141,0,0,0,0,0,0.0192,0.0197,0.0193,0.0194,0.0198,0.0205,0.0205,0.0204,0.0199,0.0203,0.019,0.0182,0.015,0.0155,0.0151,0.0152,0.0106,0.0105,0.0104,0.0138,0.014,0.0141,0,0,0,0,0,0,0.0192,0.0197,0.0194,0.02,0.0203,0.0205,0.0206,0.0204,0.0197,0.0193,0.0179,0.0175,0.0164,0.0149,0.0155,0.0135,0.0126,0.0124,0.0152,0.0154,0.0155,0.0174,0.0146,0,0,0,0,0,0.019,0.0196,0.0198,0.0204,0.0205,0.0204,0.0204,0.0203,0.0199,0.0197,0.0188,0.0171,0.0157,0.015,0.0135,0.0124,0.0119,0.012,0.0122,0.0123,0.0134,0.013,0.0133,0.0102,0.0102,0.0102,0,0,0.0192,0.0196,0.0199,0.0204,0.0205,0.0212,0.0205,0.0208,0.0214,0.0192,0.0194,0.0176,0.0154,0.0145,0.0138,0.0135,0.0127,0.0122,0.0124,0.0134,0.013,0.0133,0.0136,0.0102,0.0102,0.0102,0,0,0.0204,0.0202,0.021,0.0214,0.0215,0.0216,0.0217,0.0218,0.0219,0.0215,0.02,0.0185,0.0166,0.0155,0.0145,0.0143,0.0134,0.0134,0.0159,0.0155,0.0158,0.0161,0.0153,0.0155,0.0136,0.0136,0.0136,0,0.0202,0.0218,0.0214,0.0223,0.0231,0.022,0.0233,0.023,0.0227,0.0232,0.0219,0.0198,0.0172,0.0169,0.0165,0.0148,0.0146,0.0157,0.0159,0.0161,0.0164,0.0155,0.0157,0.0137,0.0137,0.0137,0.0137,0,0.0221,0.0232,0.0239,0.0249,0.0254,0.0264,0.0262,0.0265,0.0259,0.0258,0.0255,0.0225,0.0219,0.0199,0.018,0.0182,0.0175,0.0163,0.016,0.0169,0.0159,0.016,0.014,0.0139,0.0139,0.0138,0,0,0.0225,0.0248,0.025,0.0269,0.0271,0.0285,0.029,0.0302,0.0325,0.0299,0.0328,0.0281,0.0272,0.026,0.0234,0.0221,0.0219,0.0201,0.02,0.0204,0.0214,0.0173,0.017,0.0213,0.0214,0.0214,0.02,0,0.0242,0.0275,0.0278,0.0312,0.0333,0.0329,0.0348,0.0353,0.0357,0.038,0.0341,0.0355,0.0294,0.0303,0.0275,0.0242,0.0225,0.0225,0.0196,0.0195,0.0166,0.0171,0.0181,0.0166,0.0201,0.0201,0.0201,0,0.026,0.0285,0.0323,0.0368,0.0377,0.0395,0.0437,0.0453,0.0466,0.0473,0.0465,0.0447,0.0422,0.0376,0.0314,0.0321,0.027,0.0234,0.0233,0.0187,0.0156,0.0162,0.0166,0.0202,0.0202,0.0202,0.0202,0,0.0281,0.0319,0.0359,0.0371,0.0411,0.0435,0.0459,0.0483,0.0531,0.0545,0.0591,0.0535,0.0546,0.0464,0.0371,0.0353,0.031,0.0275,0.0189,0.0185,0.0184,0.0179,0.0236,0.0236,0.0236,0.0236,0.0236,0,0.0305,0.0336,0.0378,0.0402,0.0469,0.0479,0.0556,0.0571,0.0629,0.0711,0.0653,0.0709,0.0574,0.053,0.0415,0.0307,0.0341,0.0198,0.0181,0.0193,0.019,0.0213,0.021,0.0236,0.0236,0.0236,0.0236,0,0.0326,0.0345,0.0406,0.0461,0.0484,0.0539,0.0637,0.0708,0.0742,0.0852,0.0872,0.0855,0.0785,0.064,0.0516,0.0388,0.0274,0.0228,0.0245,0.0229,0.0138,0.0138,0.0125,0.0124,0.0123,0.0122,0.0121,0,0.034,0.0372,0.0459,0.0516,0.0548,0.063,0.0706,0.0762,0.0855,0.0955,0.1028,0.099,0.0973,0.0756,0.0521,0.0306,0.0283,0.0175,0.0124,0.0144,0.0128,0.013,0.0131,0.0137,0.0137,0.0136,0.0136,0,0.0381,0.0416,0.0478,0.0597,0.0686,0.0797,0.0907,0.0996,0.1088,0.1158,0.1254,0.1241,0.1034,0.0807,0.0499,0.0347,0.0197,0.0154,0.0195,0.0154,0.0151,0.0137,0.0138,0.0131,0.0131,0.0131,0.0132,0.0132,0.0425,0.0488,0.0585,0.0698,0.0809,0.0968,0.1064,0.1181,0.1313,0.1413,0.1397,0.1352,0.111,0.0692,0.0443,0.0165,0.0172,0.0066,0.007,0.0074,0.0068,0.0062,0.0024,0.0024,0.0024,0.0023,0.0023,0,0.0492,0.0568,0.0682,0.0832,0.097,0.1017,0.1205,0.1284,0.1419,0.1476,0.1493,0.1244,0.1001,0.0723,0.0314,0.0072,0.0055,-0.0013,0.003,0.0037,0.0042,0.0036,-0.0018,-0.0018,-0.0019,-0.002,0,0,0.0539,0.0658,0.0721,0.0947,0.1054,0.1229,0.1338,0.1424,0.148,0.1497,0.145,0.1378,0.1067,0.0764,0.0444,0.0218,0.0176,0.016,0.0216,0.031,0.0318,0.0107,0.0106,0,0,0,0,0]}],[{"header":{"parameterUnit":"m.s-1","parameterCategory":2,"la1":30.2991,"la2":30.254,"lo1":-89.0895,"lo2":-89.0444,"dy":0.0017,"dx":0.0017,"nx":28,"ny":28,"refTime":"2024-08-05T21:00:00:Z","depth":"4","parameterNumber":2,"parameterNumberName":"U-component_of_CURRENTS"},"data":[0,0,0,0,0,0,0,0,0,0,0,0,0,0,0,0,0,0,0,0,0,0,0,0,0,0,0,0,0,0,0,0,0,0,0,0,0,0,0,0,0,0,0,0,0,0,0,0,0,0,0,0,0,0,0,0,0,0,0.1213,0.1214,0,0.1266,0.1266,0.1266,0.13,0.1301,0.1301,0.1302,0.1369,0.1371,0.1372,0,0,0,0,0,0,0,0,0,0,0,0,0,0.1131,0.1132,0.1213,0.1214,0.1215,0.1266,0.1266,0.1266,0.13,0.1301,0.1302,0.1302,0.1369,0.1371,0.1372,0,0,0,0,0,0,0,0,0,0,0,0,0,0.1169,0.1132,0.1213,0.1242,0.1245,0.1266,0.1266,0.1266,0.13,0.1301,0.1302,0.1303,0.1369,0.137,0.1372,0.1365,0,0,0.1378,0.1379,0,0,0,0,0,0,0,0,0.1167,0.1172,0.1236,0.124,0.1244,0.1281,0.1262,0.1302,0.13,0.1274,0.1302,0.1303,0.1344,0.1347,0.1349,0.1368,0.1371,0.1378,0.1379,0.138,0.138,0,0,0,0,0,0,0,0.1164,0.117,0.123,0.1237,0.1242,0.1248,0.1254,0.1269,0.13,0.1277,0.128,0.1293,0.1345,0.1347,0.1351,0.1372,0.1378,0.138,0.1381,0.1381,0.1471,0.1473,0,0,0,0,0,0,0.1166,0.1167,0.1228,0.1232,0.1212,0.1249,0.1256,0.1265,0.13,0.1307,0.1292,0.1294,0.1343,0.1349,0.1353,0.1424,0.138,0.1382,0.1383,0.147,0.1472,0.1473,0,0,0,0,0,0,0.1164,0.1171,0.1226,0.1204,0.1212,0.125,0.126,0.1265,0.1298,0.1312,0.1319,0.1324,0.1344,0.1351,0.1391,0.1424,0.1382,0.1384,0.1469,0.1471,0.1472,0.1515,0,0,0,0,0,0,0.1162,0.117,0.1188,0.1204,0.1214,0.1255,0.1259,0.1266,0.1305,0.1309,0.1341,0.1346,0.1345,0.1389,0.1393,0.1426,0.1386,0.1467,0.147,0.1472,0.1512,0.1518,0.1524,0,0,0,0,0,0.1158,0.1175,0.1188,0.1197,0.1233,0.1256,0.1262,0.1288,0.1306,0.1321,0.1346,0.1347,0.1407,0.1391,0.1396,0.143,0.1466,0.1469,0.1472,0.151,0.1517,0.1524,0,0,0,0,0,0,0.1157,0.1181,0.1196,0.1222,0.1247,0.1264,0.1288,0.1305,0.1336,0.1351,0.136,0.1367,0.1415,0.1416,0.1398,0.1463,0.1438,0.1442,0.1465,0.1472,0.1478,0.1468,0.1387,0,0,0,0,0,0.1163,0.1178,0.1206,0.123,0.1246,0.1272,0.1291,0.1311,0.1336,0.1352,0.1379,0.1405,0.1424,0.1445,0.1461,0.1497,0.1504,0.1523,0.1529,0.1533,0.1529,0.1573,0.1582,0.1483,0.1483,0.1483,0,0,0.1166,0.1187,0.1195,0.123,0.1253,0.1279,0.1286,0.1324,0.1353,0.1355,0.1411,0.1428,0.1438,0.1477,0.1499,0.1487,0.1567,0.1537,0.1541,0.1534,0.1577,0.1586,0.1595,0.1485,0.1484,0.1484,0,0,0.1183,0.1204,0.1226,0.1247,0.1292,0.1304,0.1323,0.1363,0.1389,0.1438,0.1445,0.1479,0.1523,0.1529,0.1537,0.1584,0.1595,0.1603,0.1627,0.167,0.1678,0.1685,0.1713,0.1722,0.1607,0.1607,0.1607,0,0.1194,0.1221,0.1237,0.1269,0.1286,0.132,0.1346,0.1376,0.1427,0.1448,0.1467,0.1527,0.1543,0.1569,0.159,0.1597,0.1622,0.1599,0.1677,0.1684,0.1691,0.1717,0.1727,0.161,0.1609,0.1609,0.1609,0,0.1222,0.1253,0.1269,0.1312,0.1331,0.136,0.1396,0.1434,0.1474,0.1503,0.1558,0.1579,0.1613,0.1628,0.1627,0.168,0.1683,0.1678,0.1658,0.1704,0.1729,0.1738,0.1613,0.1612,0.1612,0.1611,0,0,0.1224,0.1276,0.1288,0.1298,0.1352,0.1361,0.1416,0.1456,0.149,0.1553,0.1598,0.1637,0.166,0.1669,0.1678,0.1713,0.1788,0.1725,0.1726,0.1749,0.1887,0.1767,0.1766,0.181,0.1812,0.1813,0.1887,0,0.1245,0.1285,0.1315,0.1348,0.1359,0.1396,0.1431,0.1475,0.1527,0.1585,0.1623,0.1677,0.1674,0.1705,0.1739,0.1782,0.1815,0.1768,0.1841,0.1843,0.1728,0.1773,0.1819,0.1894,0.1896,0.1897,0.1898,0,0.1264,0.1281,0.1311,0.1334,0.1346,0.1379,0.1419,0.1462,0.1546,0.1594,0.1657,0.1702,0.1769,0.1765,0.1851,0.1831,0.1862,0.1885,0.1889,0.1764,0.174,0.1837,0.1915,0.1914,0.1913,0.1912,0.1911,0,0.1215,0.1274,0.1285,0.1297,0.1339,0.1366,0.1402,0.1471,0.1513,0.1621,0.1675,0.1748,0.1817,0.1864,0.1927,0.1909,0.202,0.1998,0.1909,0.1901,0.1968,0.1959,0.2051,0.2051,0.2051,0.2051,0.2051,0,0.1191,0.1204,0.127,0.1267,0.1282,0.1337,0.1381,0.1428,0.1529,0.1587,0.1685,0.1744,0.1855,0.1931,0.1957,0.1965,0.2049,0.1914,0.1912,0.1985,0.1977,0.1975,0.1965,0.2054,0.2053,0.2053,0.2052,0,0.1115,0.1167,0.1175,0.1232,0.1254,0.1266,0.1363,0.1398,0.151,0.1597,0.1646,0.1785,0.1886,0.1961,0.2059,0.1999,0.2019,0.1999,0.208,0.2082,0.1861,0.1853,0.1893,0.1889,0.1886,0.1884,0.1881,0,0.1072,0.1072,0.1128,0.1137,0.1168,0.1218,0.1251,0.137,0.1426,0.1603,0.1637,0.179,0.1869,0.1912,0.1988,0.2019,0.1994,0.1976,0.1895,0.185,0.1846,0.1842,0.1838,0.1877,0.1876,0.1875,0.1874,0,0.0979,0.1016,0.1015,0.1046,0.1085,0.1113,0.119,0.1225,0.1378,0.1497,0.161,0.1677,0.1785,0.1855,0.19,0.1911,0.1968,0.1944,0.1949,0.1872,0.1831,0.1829,0.1829,0.1864,0.1865,0.1866,0.1867,0,0.0911,0.0899,0.0931,0.0943,0.0985,0.1007,0.1053,0.1146,0.1225,0.144,0.148,0.1641,0.1786,0.18,0.1839,0.1846,0.1804,0.1722,0.1738,0.175,0.1665,0.1589,0.1549,0,0,0,0,0,0.0847,0.0837,0.0834,0.0852,0.0888,0.093,0.1012,0.1078,0.1244,0.1288,0.1388,0.1488,0.1573,0.1652,0.1629,0.1739,0.1786,0.1699,0.1692,0.1805,0.1817,0.1727,0,0,0,0,0,0,0.0804,0.0804,0.0806,0.0785,0.0791,0.0837,0.089,0.099,0.1032,0.1206,0.1271,0.1395,0.1503,0.1594,0.161,0.1627,0.1586,0.1799,0.1794,0.1798,0.1809,0.1819,0.1731,0,0,0,0,0]},{"header":{"parameterUnit":"m.s-1","parameterCategory":2,"la1":30.2991,"la2":30.254,"lo1":-89.0895,"lo2":-89.0444,"dy":0.0017,"dx":0.0017,"nx":28,"ny":28,"refTime":"2024-08-05T21:00:00:Z","depth":"4","parameterNumber":3,"parameterNumberName":"V-component_of_CURRENTS"},"data":[0,0,0,0,0,0,0,0,0,0,0,0,0,0,0,0,0,0,0,0,0,0,0,0,0,0,0,0,0,0,0,0,0,0,0,0,0,0,0,0,0,0,0,0,0,0,0,0,0,0,0,0,0,0,0,0,0,0,0.0244,0.0244,0,0.0244,0.0244,0.0244,0.0245,0.0245,0.0245,0.0245,0.0217,0.0216,0.0215,0,0,0,0,0,0,0,0,0,0,0,0,0,0.0237,0.0238,0.0244,0.0244,0.0244,0.0244,0.0244,0.0244,0.0245,0.0245,0.0245,0.0245,0.0217,0.0216,0.0215,0,0,0,0,0,0,0,0,0,0,0,0,0,0.0239,0.0238,0.0244,0.0245,0.0245,0.0244,0.0244,0.0244,0.0245,0.0245,0.0245,0.0245,0.0217,0.0216,0.0215,0.0205,0,0,0.0211,0.0211,0,0,0,0,0,0,0,0,0.0239,0.0239,0.0245,0.0245,0.0245,0.0245,0.0232,0.023,0.0245,0.0245,0.0245,0.0246,0.0224,0.0222,0.0222,0.0204,0.0203,0.0211,0.021,0.021,0.0209,0,0,0,0,0,0,0,0.0239,0.0239,0.0244,0.0245,0.0245,0.0243,0.0244,0.0231,0.0233,0.0245,0.0245,0.0246,0.0224,0.0223,0.0221,0.0202,0.0211,0.021,0.0209,0.0209,0.0166,0.0166,0,0,0,0,0,0,0.024,0.0239,0.0244,0.0244,0.0243,0.0243,0.0244,0.0245,0.0233,0.0232,0.0246,0.0246,0.0225,0.0222,0.022,0.021,0.021,0.0209,0.0208,0.0166,0.0166,0.0166,0,0,0,0,0,0,0.024,0.024,0.0244,0.0242,0.0242,0.0243,0.0245,0.0245,0.0248,0.0235,0.0233,0.0249,0.0225,0.0221,0.0211,0.0209,0.0208,0.0207,0.0167,0.0166,0.0166,0.0189,0,0,0,0,0,0,0.024,0.024,0.0243,0.0242,0.0242,0.0244,0.0244,0.0245,0.0248,0.0249,0.0237,0.0234,0.0225,0.0213,0.021,0.0207,0.0206,0.0167,0.0167,0.0166,0.0189,0.0189,0.019,0,0,0,0,0,0.0239,0.0242,0.0243,0.0243,0.0245,0.0245,0.0245,0.0245,0.0248,0.0249,0.0242,0.0235,0.0206,0.0212,0.0209,0.0205,0.0168,0.0167,0.0166,0.0189,0.0189,0.019,0,0,0,0,0,0,0.0239,0.0243,0.0243,0.0247,0.0246,0.0245,0.0248,0.0248,0.0244,0.0244,0.0234,0.023,0.0219,0.0207,0.0214,0.0189,0.0184,0.0183,0.0202,0.0203,0.0204,0.0214,0.0205,0,0,0,0,0,0.0241,0.0245,0.0245,0.0247,0.0249,0.0249,0.025,0.025,0.0246,0.0245,0.0237,0.0224,0.0212,0.0205,0.0191,0.018,0.0163,0.0173,0.0173,0.0174,0.0179,0.0156,0.0155,0.0163,0.0163,0.0163,0,0,0.0241,0.0244,0.0245,0.0248,0.0249,0.025,0.025,0.0252,0.0253,0.0241,0.0239,0.0228,0.0209,0.0197,0.0191,0.0188,0.0159,0.0173,0.0174,0.0178,0.0155,0.0154,0.0154,0.0162,0.0162,0.0162,0,0,0.024,0.0246,0.0248,0.025,0.0252,0.0253,0.0255,0.0254,0.0255,0.025,0.0241,0.023,0.0211,0.02,0.019,0.0184,0.0164,0.0177,0.0188,0.0166,0.0165,0.0165,0.013,0.0126,0.0176,0.0176,0.0176,0,0.0238,0.0245,0.0247,0.0249,0.0257,0.0255,0.0261,0.0257,0.0252,0.0258,0.025,0.023,0.0212,0.0203,0.0198,0.0187,0.0168,0.019,0.0168,0.0167,0.0166,0.013,0.0125,0.0177,0.0177,0.0176,0.0176,0,0.0236,0.0245,0.0248,0.0252,0.0258,0.0264,0.0263,0.0267,0.0268,0.0266,0.0262,0.0239,0.0232,0.0217,0.0205,0.019,0.0176,0.0173,0.017,0.0167,0.0129,0.0124,0.0178,0.0178,0.0177,0.0177,0,0,0.0224,0.0244,0.0246,0.0265,0.0266,0.0278,0.0277,0.0286,0.0306,0.0283,0.0298,0.0263,0.0259,0.0248,0.023,0.0205,0.0172,0.0187,0.0186,0.0159,0.0113,0.01,0.0092,0.0168,0.0168,0.0167,0.0085,0,0.0225,0.0245,0.0248,0.0274,0.0292,0.0298,0.0308,0.0315,0.0318,0.0329,0.0299,0.0304,0.0268,0.0274,0.0239,0.0196,0.0161,0.0194,0.0114,0.0111,0.0106,0.0088,0.0166,0.0081,0.008,0.0079,0.0078,0,0.0222,0.0244,0.0272,0.0317,0.0326,0.0341,0.0382,0.039,0.0392,0.0396,0.0383,0.0364,0.0324,0.03,0.0209,0.0232,0.0174,0.0131,0.0127,0.0106,0.009,0.0086,0.0069,0.0069,0.007,0.0071,0.0071,0,0.0233,0.0264,0.0299,0.0311,0.035,0.0376,0.0399,0.0416,0.0447,0.0445,0.0461,0.0407,0.0392,0.031,0.0206,0.0212,0.0099,0.0099,0.0027,0.0025,0.0053,0.0054,0.0034,0.0034,0.0034,0.0035,0.0035,0,0.024,0.027,0.0318,0.034,0.0407,0.0416,0.0481,0.0495,0.052,0.0557,0.0506,0.051,0.0396,0.0316,0.0217,0.0097,0.0102,0.0024,0.0005,0.0061,0.0065,0.0048,0.0051,0.0031,0.0032,0.0033,0.0033,0,0.0254,0.0272,0.033,0.0389,0.0418,0.0472,0.0551,0.0594,0.0605,0.0647,0.065,0.0587,0.0481,0.0348,0.0208,0.0121,0.0006,-0.0038,0.0017,0.0002,-0.0057,-0.0052,-0.0117,-0.0118,-0.0119,-0.012,-0.0121,0,0.0263,0.0292,0.0383,0.0431,0.0467,0.0547,0.0604,0.0643,0.0686,0.0692,0.071,0.0624,0.0561,0.0345,0.0201,0.0001,-0.0024,-0.0092,-0.0064,-0.0059,-0.0072,-0.0066,-0.006,-0.0122,-0.0122,-0.0123,-0.0123,0,0.0294,0.0329,0.0386,0.0484,0.0559,0.0644,0.072,0.0756,0.0788,0.0797,0.0765,0.0653,0.0528,0.0354,0.0189,0.0048,-0.0051,-0.0102,-0.0101,-0.0074,-0.0066,-0.0076,-0.0069,-0.0126,-0.0126,-0.0125,-0.0125,0,0.033,0.0379,0.0451,0.0544,0.0628,0.0704,0.0749,0.0791,0.0831,0.0827,0.0811,0.0673,0.0595,0.0377,0.0227,0.0081,0.0056,0.0014,0.0009,0.0011,0.0071,0.0102,0.0074,0,0,0,0,0,0.0363,0.0416,0.0501,0.0594,0.0672,0.0727,0.0807,0.0837,0.0863,0.0851,0.0835,0.0718,0.05,0.0404,0.026,0.0205,0.0023,0.003,-0.003,-0.0144,-0.014,-0.0093,0,0,0,0,0,0,0.0386,0.0461,0.0505,0.0611,0.0677,0.0771,0.0824,0.0848,0.0841,0.0839,0.0727,0.0679,0.0467,0.0583,0.0256,0.0212,0.0153,-0.0068,-0.0072,-0.0146,-0.0143,-0.014,-0.0089,0,0,0,0,0]}]]